NOAA 16 DEB, 41499

Orbit data source: Space-Track

NOAA 16 DEB, 41499 is space debris in SSO originally from a launch on Thu, 21 Sep 2000 UTC launched from the Air Force Western Test Range (AFWTR). Debris objects in space refer to the collection of defunct objects orbiting the Earth. Examples of debris include non-operational satellites, rocket bodies, and fragments generated from explosions, collisions, or faulty payload assembly.

Loading next visibility...
Identifier
41499, 2000-055LX
Orbit
SSO
Country
Flag of USUS
Related business
Manufacturer
Unknown
Mission
Spacecraft
Bus & Motor
Unknown
Mass
Unknown
Launch date (UTC)
2000-09-21 (25 years ago)
Launch vehicle
Unknown
Launch site
Air Force Western Test Range (AFWTR)
Object type
Payload
Rocket body
Debris
Shape & HBR
Unknown shape, 0.1 m
Radar Cross Section
Small (<0.1 m²)

Expand to show TLE details & history
Last TLE update: 2 weeks ago

TLE from 2 weeks ago
0 NOAA 16 DEB
1 41499U 00055LX  26021.50445877  .00025141  00000-0  73287-2 0  9990
2 41499  98.6927 110.1292 0025008 320.5773  39.3596 14.43903138511837
Epoch: 2026-01-21T12:06Z
TLE epoch observation values (Epoch: 2026-01-21T12:06:25.237Z)
Latitude
-0.00007°
Longitude
167.65303°
Altitude
734.82 km
Speed
7.495 km/s
True Right ascension
07h 20m 31s
True Declination
0° 00' 00"
Sunlit
Object was in full shadow at epoch
Visualization orbit readout
Latitude
Unknown
Longitude
Unknown
Altitude
Unknown
Speed
Unknown
Apparent Right ascension
Unknown
Apparent Declination
Unknown
Sunlit
N/A
Visualization observer readout
Local Sidereal Time
14:18:49
Azimuth
Unknown
Elevation
Unknown
Doppler factor
Unknown
Orbital elements
Apogee altitude
760.565 km
Perigee altitude
724.949 km
Semi-major axis
7,120.894 km
Eccentricity
0.0025
Inclination
98.6927°
RAAN
110.1292°
Arg. of periapsis
320.5773°
True anomaly
39.54178°
Mean anomaly
39.3596°
Eccentric anomaly
39.45065°
Mean motion
3.61195 °/min
Orbital period
99.67 mins
BSTAR
0.0073287
Loading maneuver chart data...
Computing Atmospheric mass density...
Loading historical data...
Loading historical data...
Loading historical data...
Loading historical data...
Loading historical data...
Loading historical data...
Loading historical data...

Documentation

Showing up to 5 results
|